This demonstration page uses our WeatherBlox Daily Observations layout. Learn more.

Left ArrowRight Arrow

41.86663, -103.66717

Hourly Observations for September 12, 2018

Temp ( °F °C ) Dew Point ( °F °C ) Humidity (%) Winds ( mph kmh ) Pressure ( in mb ) Visibility ( mi km ) Precip ( " mm )
12:53 am 00:53 Clear 64 17.8 57 13.9 78 78 E 9 15 29.72 1006 10 16 N/A
1:53 am 01:53 Clear 63 17.2 58 14.4 84 84 ESE 12 19 29.72 1006 10 16 N/A
2:53 am 02:53 Clear 61 16.1 60 15.6 97 97 ESE 9 15 29.72 1006 10 16 N/A
3:53 am 03:53 Clear 59 15 59 15 100 100 N N/A 29.72 1007 10 16 N/A
4:53 am 04:53 Clear 57 13.9 57 13.9 100 100 ESE 9 15 29.72 1006 10 16 N/A
5:53 am 05:53 Clear 56 13.3 56 13.3 100 100 ESE 8 13 29.72 1007 8 13 N/A
6:53 am 06:53 Sunny with Mist and Fog 55 12.8 55 12.8 100 100 ESE 6 9 29.74 1007 5 8 N/A
7:53 am 07:53 Sunny 60 15.6 59 15 96 96 SE 12 19 29.76 1008 10 16 N/A
8:53 am 08:53 Sunny 66 18.9 59 15 78 78 SE 10 17 29.75 1008 10 16 N/A
9:53 am 09:53 Sunny 75 23.9 59 15 58 58 SSE 10 17 29.73 1007 10 16 N/A
10:53 am 10:53 Sunny 79 26.1 61 16.1 54 54 SE 6 9 29.72 1006 10 16 N/A
11:53 am 11:53 Sunny 84 28.9 59 15 43 43 ESE 9 15 29.70 1006 10 16 N/A
12:53 pm 12:53 Sunny 90 32.2 53 11.7 28 28 ESE 8 13 29.65 1004 10 16 N/A
1:53 pm 13:53 Sunny 94 34.4 54 12.2 26 26 E 15 24 29.62 1003 10 16 N/A
2:53 pm 14:53 Sunny 96 35.6 46 7.8 18 18 ESE 20 31 29.59 1002 10 16 N/A
3:53 pm 15:53 Sunny 96 35.6 50 10 21 21 ESE 18 30 29.58 1002 10 16 N/A
4:53 pm 16:53 Sunny 95 35 43 6.1 17 17 SSE 14 22 29.58 1002 10 16 N/A
5:53 pm 17:53 Sunny 92 33.3 42 5.6 18 18 SSE 15 24 29.59 1002 10 16 N/A
6:53 pm 18:53 Sunny 83 28.3 56 13.3 40 40 ESE 12 19 29.60 1002 10 16 N/A
7:53 pm 19:53 Clear 77 25 61 16.1 58 58 ESE 14 22 29.62 1003 10 16 N/A
8:53 pm 20:53 Clear 76 24.4 61 16.1 60 60 ESE 16 26 29.63 1003 10 16 N/A
9:53 pm 21:53 Clear 74 23.3 60 15.6 62 62 ESE 15 24 29.62 1003 10 16 N/A
10:53 pm 22:53 Clear 70 21.1 59 15 68 68 ESE 13 20 29.62 1003 10 16 N/A
11:53 pm 23:53 Clear 70 21.1 58 14.4 66 66 N 7 11 29.63 1003 10 16 N/A

Powered by AerisWeather